{"data":{"norad_id":53830,"intl_designator":"2022-114N","name":"STARLINK-4761","alt_names":[],"object_type":"PAYLOAD","status":"ACTIVE","operator":null,"country":"US","launch_date":"2022-09-19","launch_site_code":"AFETR","launch_vehicle":null,"mission":null,"orbit_class":"UNKNOWN","rcs_meters":null,"size_class":null,"mass_kg":null,"dimensions":null,"purposes":["comms"],"wikipedia_slug":null,"has_3d_model":false,"image_url":null,"decayed_at":null,"tle_current":{"epoch":"2026-09-20T22:06:26.004384Z","epoch_age_seconds":47730,"freshness":"FRESH","line1":"1 53830U 22114N   26263.92113431 -.00000029  00000+0  10293-4 0  9992","line2":"2 53830  53.1606 137.9885 0001469  92.5470 267.5701 15.34388978222437","mean_motion":15.34388978,"eccentricity":0.0001469,"inclination_deg":53.1606,"raan_deg":137.9885,"arg_perigee_deg":92.547,"mean_anomaly_deg":267.5701,"bstar":1.0293e-5,"rev_number":22243,"period_min":93.848432219382,"perigee_km":461.73107586627,"apogee_km":463.74092435371,"semimajor_km":6840.87300011,"source":"CELESTRAK","updated_at":"2026-09-21T09:00:32.999767Z"}}}